Easton, MD

9:54 PM EDT on April 26, 2017 (GMT -0400)
Easton / Newnam

Weather History for KESN - July, 2013

Change the Weather History Date:

Tuesday, July 16, 2013

  Actual Average Record
Temperature  
Mean Temperature 84 °F -  
Max Temperature 91 °F 88 °F 94 °F (1952)
Min Temperature 76 °F 67 °F 56 °F (1957)
Cooling Degree Days 18    
Growing Degree Days 34 (Base 50)    
Moisture  
Dew Point 75 °F    
Average Humidity 81    
Maximum Humidity 100    
Minimum Humidity 52    
Precipitation  
Precipitation 0.00 in - - ()
Sea Level Pressure  
Sea Level Pressure 30.23 in    
Wind  
Wind Speed 2 mph (North)    
Max Wind Speed 13 mph    
Max Gust Speed -    
Visibility 10 miles    
Events      
Averages and records for this station are not official NWS values.
T = Trace of Precipitation, MM = Missing Value Source: NWS Daily Summary

Daily Weather History Graph

Daily Weather History Graph

Search for Another Location

Airport or City:

Trip Planner

Search our weather history database for the weather conditions in past years. The results will help you decide how hot, cold, wet, or windy it might be!

Date:

Astronomy

Jul. 16, 2013 Rise Set
Actual Time 5:52 AM EDT 8:27 PM EDT
Civil Twilight 5:21 AM EDT 8:58 PM EDT
Nautical Twilight 4:42 AM EDT 9:37 PM EDT
Astronomical Twilight 3:59 AM EDT 10:20 PM EDT
Moon 2:08 PM EDT (7/16) 12:18 AM EDT (7/16)
Length of Visible Light 15h 37m
Length of Day
14h 35m
First Quarter, 56% of the Moon is Illuminated
Jul 16
First Quarter
Jul 22
Full
Jul 29
Last Quarter
Aug 6
New
Aug 14
First Quarter

Hourly Weather History & Observations

Time (EDT) Temp. Heat Index Dew Point Humidity Pressure Visibility Wind Dir Wind Speed Gust Speed Precip Events Conditions
12:12 AM 80.2 °F 87.0 °F 78.3 °F 94% 30.24 in 10.0 mi Calm Calm - N/A   Clear
12:32 AM 80.2 °F 86.8 °F 78.1 °F 93% 30.24 in 10.0 mi Calm Calm - N/A   Clear
12:52 AM 79.7 °F - 78.1 °F 95% 30.24 in 10.0 mi Calm Calm - N/A   Clear
1:12 AM 79.7 °F - 78.4 °F 96% 30.23 in 10.0 mi Calm Calm - N/A   Clear
1:32 AM 79.7 °F - 78.4 °F 96% 30.23 in 10.0 mi Calm Calm - N/A   Clear
1:52 AM 79.7 °F - 78.1 °F 95% 30.22 in 10.0 mi Calm Calm - N/A   Clear
2:12 AM 79.7 °F - 77.9 °F 94% 30.22 in 10.0 mi Calm Calm - N/A   Scattered Clouds
2:32 AM 79.0 °F - 77.4 °F 95% 30.22 in 10.0 mi Calm Calm - N/A   Clear
2:52 AM 79.3 °F - 77.2 °F 93% 30.22 in 10.0 mi WNW 3.5 mph - N/A   Clear
3:12 AM 79.2 °F - 77.0 °F 93% 30.21 in 10.0 mi Calm Calm - N/A   Clear
3:32 AM 79.3 °F - 77.0 °F 93% 30.21 in 10.0 mi Calm Calm - N/A   Clear
3:52 AM 79.2 °F - 76.6 °F 92% 30.21 in 10.0 mi Calm Calm - N/A   Clear
4:12 AM 79.2 °F - 76.3 °F 91% 30.21 in 10.0 mi Calm Calm - N/A   Clear
4:32 AM 79.2 °F - 76.3 °F 91% 30.21 in 10.0 mi Calm Calm - N/A   Clear
4:53 AM 78.8 °F - 76.3 °F 92% 30.22 in 10.0 mi Calm Calm - N/A   Clear
5:13 AM 77.4 °F - 76.5 °F 97% 30.22 in 10.0 mi Calm Calm - N/A   Clear
5:33 AM 76.1 °F - 76.1 °F 100% 30.22 in 10.0 mi Calm Calm - N/A   Clear
5:50 AM 77.0 °F - 77.0 °F 100% 30.23 in 10.0 mi Calm Calm - N/A   Clear
5:53 AM 77.0 °F - 77.0 °F 100% 30.23 in 10.0 mi Calm Calm - N/A   Clear
6:13 AM 77.0 °F - 77.0 °F 100% 30.23 in 10.0 mi Calm Calm - N/A   Clear
6:33 AM 80.6 °F 87.1 °F 77.0 °F 89% 30.23 in 10.0 mi Calm Calm - N/A   Clear
6:50 AM 80.6 °F 87.1 °F 77.0 °F 89% 30.24 in 10.0 mi Calm Calm - N/A   Clear
6:53 AM 79.7 °F - 77.5 °F 93% 30.23 in 10.0 mi Calm Calm - N/A   Clear
7:13 AM 80.8 °F 87.8 °F 77.5 °F 90% 30.23 in 10.0 mi NNW 3.5 mph - N/A   Clear
7:33 AM 82.4 °F 90.6 °F 76.8 °F 83% 30.24 in 10.0 mi North 5.8 mph - N/A   Clear
7:42 AM 82.6 °F 91.1 °F 76.8 °F 83% 30.24 in 10.0 mi North 4.6 mph - N/A   Clear
7:50 AM 82.4 °F 89.5 °F 75.2 °F 79% 30.24 in 10.0 mi Calm Calm - N/A   Clear
8:50 AM 84.2 °F 92.3 °F 75.2 °F 74% 30.24 in 10.0 mi NNE 9.2 mph - N/A   Clear
9:50 AM 86.0 °F 91.8 °F 71.6 °F 62% 30.25 in 10.0 mi NNE 10.4 mph - N/A   Clear
10:53 AM 89.6 °F 96.2 °F 71.6 °F 55% 30.25 in 10.0 mi North 9.2 mph - N/A   Scattered Clouds
11:50 AM 89.6 °F 96.2 °F 71.6 °F 55% 30.25 in 10.0 mi NE 10.4 mph - N/A   Clear
11:53 AM 90.3 °F 98.2 °F 72.7 °F 56% 30.25 in 10.0 mi NNE 9.2 mph - N/A   Clear
12:13 PM 90.3 °F 96.7 °F 71.1 °F 53% 30.24 in 10.0 mi NNE 12.7 mph - N/A   Clear
12:17 PM 90.5 °F 97.0 °F 71.4 °F 53% 30.24 in 10.0 mi North 9.2 mph - N/A   Clear
12:50 PM 91.4 °F 98.4 °F 71.6 °F 52% 30.25 in 10.0 mi NNE 9.2 mph - N/A   Clear
1:53 PM 91.4 °F 98.4 °F 71.6 °F 52% 30.23 in 10.0 mi NNE 6.9 mph - N/A   Clear
2:53 PM 91.4 °F 98.4 °F 71.6 °F 52% 30.22 in 10.0 mi North 6.9 mph - N/A   Partly Cloudy
3:53 PM 91.4 °F 98.4 °F 71.6 °F 52% 30.21 in 10.0 mi North 8.1 mph - N/A   Partly Cloudy
4:53 PM 91.4 °F 98.4 °F 71.6 °F 52% 30.20 in 10.0 mi NNW 9.2 mph - N/A   Partly Cloudy
5:53 PM 91.4 °F 98.4 °F 71.6 °F 52% 30.19 in 10.0 mi North 8.1 mph - N/A   Partly Cloudy
6:53 PM 91.4 °F 100.1 °F 73.4 °F 55% 30.20 in 10.0 mi North 6.9 mph - N/A   Clear
7:53 PM 86.0 °F 95.1 °F 75.2 °F 70% 30.21 in 10.0 mi North 5.8 mph - N/A   Clear
8:53 PM 82.4 °F 90.9 °F 77.0 °F 84% 30.21 in 10.0 mi Calm Calm - N/A   Clear
10:55 PM 79.5 °F - 75.9 °F 89% 30.22 in 10.0 mi Calm Calm - N/A   Clear
11:15 PM 78.6 °F - 76.1 °F 92% 30.22 in 10.0 mi Calm Calm - N/A   Clear
11:55 PM 77.7 °F - 77.7 °F 100% 30.22 in 10.0 mi Calm Calm - N/A   Clear